SCP
0 0 0 0 0 0 0 0 0 0 0 0 0 0 0 0 0 0 0 0 0 0 0 0 0 0 0 0 0 0 0 0 0 0 0 0 0 0 0 0 0 0 0 0
0 0 0 0 0 0 0 0 0 0 0 0 0 0 0 0 0 0 0 0 0 0 0 0 0 0 0 0 0 0 0 0 0 0 0 0 0 0 0 0 0 0 0 0
0 0 0 0 0 0 0 0 0 0 0 0 0 0 0 0 0 0 0 0 0 0 0 0 0 0 0 0 0 0 0 0 0 0 0 0 0 0 0 0 0 0 0 0
0 0 0 0 0 0 0 0 0 0 0 0 0 0 0 0 0 0 0 0 0 0 0 0 0 0 0 0 0 0 0 0 0 0 0 0 0 0 0 0 0 0 0 0
0 0 0 0 0 0 0 0 0 0 0 0 0 0 0 0 0 0 0 0 0 0 0 0 0 0 0 0 0 0 0 0 0 0 0 0 0 0 0 0 0 0 0 0
0 0 0 0 0 0 0 0 0 0 0 0 0 0 0 0 0 0 0 0 0 0 0 0 0 0 0 0 0 0 0 0 0 0 0 0 0 0 0 0 0 0 0 0
0 0 0 0 0 0 0 0 0 0 0 0 0 0 0 0 0 0 0 0 0 0 0 0 0 0 0 0 0 0 0 0 0 0 0 0 0 0 0 0 0 0 0 0
0 0 0 0 0 0 0 0 0 0 0 0 0 0 0 0 0 0 0 0 0 0 0 0 0 0 0 0 0 0 0 0 0 0 0 0 0 0 0 0 0 0 0 0
0 0 0 0 0 0 0 0 0 0 0 0 0 0 0 0 0 0 0 0 0 0 0 0 0 0 0 0 0 0 0 0 0 0 0 0 0 0 0 0 0 0 0 0
0 0 0 0 0 0 0 0 0 0 0 0 0 0 0 0 0 0 0 0 0 0 0 0 0 0 0 0 0 0 0 0 0 0 0 0 0 0 0 0 0 0 0 0
0 0 0 0 0 0 0 0 0 0 0 0 0 0 0 0 0 0 0 0 0 0 0 0 0 0 0 0 0 0 0 0 0 0 0 0 0 0 0 0 0 0 0 0
0 0 0 0 0 0 0 0 0 0 0 0 0 0 0 0 0 0 0 0 0 0 0 0 0 0 0 0 0 0 0 0 0 0 0 0 0 0 0 0 0 0 0 0
0 0 0 0 0 0 0 0 0 0 0 0 0 0 0 0 0 0 0 0 0 0 0 0 0 0 0 0 0 0 0 0 0 0 0 0 0 0 0 0 0 0 0 0
0 0 0 0 0 0 0 0 0 0 0 0 0 0 0 0 0 0 0 0 0 0 0 0 0 0 0 0 0 0 0 0 0 0 0 0 0 0 0 0 0 0 0 0
0 0 0 0 0 0 0 0 0 0 0 0 0 0 0 0 0 0 0 0 0 0 0 0 0 0 0 0 0 0 0 0 0 0 0 0 0 0 0 0 0 0 0 0
0 0 0 0 0 0 0 0 0 0 0 0 0 0 0 0 0 0 0 0 0 0 0 0 0 0 0 0 0 0 0 0 0 0 0 0 0 0 0 0 0 0 0 0
0 0 0 0 0 0 0 0 0 0 0 0 0 0 0 0 0 0 0 0 0 0 0 0 0 0 0 0 0 0 0 0 0 0 0 0 0 0 0 0 0 0 0 0
0 0 0 0 0 0 0 0 0 0 0 0 0 0 0 0 0 0 0 0 0 0 0 0 0 0 0 0 0 0 0 0 0 0 0 0 0 0 0 0 0 0 0 0
0 0 0 0 0 0 0 0 0 0 0 0 0 0 0 0 0 0 0 0 0 0 0 0 0 0 0 0 0 0 0 0 0 0 0 0 0 0 0 0 0 0 0 0
0 0 0 0 0 0 0 0 0 0 0 0 0 0 0 0 0 0 0 0 0 0 0 0 0 0 0 0 0 0 0 0 0 0 0 0 0 0 0 0 0 0 0 0
0 0 0 0 0 0 0 0 0 0 0 0 0 0 0 0 0 0 0 0 0 0 0 0 0 0 0 0 0 0 0 0 0 0 0 0 0 0 0 0 0 0 0 0
0 0 0 0 0 0 0 0 0 0 0 0 0 0 0 0 0 0 0 0 0 0 0 0 0 0 0 0 0 0 0 0 0 0 0 0 0 0 0 0 0 0 0 0
0 0 0 0 0 0 0 0 0 0 0 0 0 0 0 0 0 0 0 0 0 0 0 0 0 0 0 0 0 0 0 0 0 0 0 0 0 0 0 0 0 0 0 0
0 0 0 0 0 0 0 0 0 0 0 0 0 0 0 0 0 0 0 0 0 0 0 0 0 0 0 0 0 0 0 0 0 0 0 0 0 0 0 0 0 0 0 0
0 0 0 0 0 0 0 0 0 0 0 0 0 0 0 0 0 0 0 0 0 0 0 0 0 0 0 0 0 0 0 0 0 0 0 0 0 0 0 0 0 0 0 0
0 0 0 0 0 0 0 0 0 0 0 0 0 0 0 0 0 0 0 0 0 0 0 0 0 0 0 0 0 0 0 0 0 0 0 0 0 0 0 0 0 0 0 0
Wind_Speed
3 3 8 10 9 6 4 4 5 6 3 2 8 13 16 10 6 8 8 7 8 10 9 6 6 6 7 8 10 12 13 11 10 8 8 7 7 6 6 6 8 8 8 8
2 9 10 6 5 5 5 5 6 5 2 2 7 13 12 8 7 7 7 7 7 7 6 5 4 6 8 10 11 12 13 12 12 10 8 6 5 4 5 5 6 8 8 8
11 6 6 6 6 7 7 8 7 5 4 2 5 10 7 5 4 5 6 6 6 7 7 6 5 6 7 9 11 11 12 12 12 10 6 4 3 2 3 5 6 8 9 8
9 6 5 7 8 9 9 7 6 4 2 5 2 7 10 5 7 6 6 6 6 5 5 5 5 6 8 9 8 9 10 11 11 11 10 10 8 8 8 6 6 6 8 9
9 7 8 9 10 10 6 3 4 3 3 4 2 4 12 4 6 8 7 7 6 5 5 5 6 6 6 6 6 7 8 9 10 11 12 11 10 8 4 4 6 7 7 8
6 4 7 8 5 6 5 5 3 2 1 6 7 6 11 6 8 6 5 5 6 5 4 4 4 3 4 4 5 6 8 9 10 11 11 12 12 9 7 7 7 7 5 6
5 5 5 4 5 3 5 5 0 2 2 8 4 6 13 9 8 7 8 7 6 5 4 4 4 3 4 5 6 6 8 9 9 10 11 12 12 11 11 10 9 8 6 6
8 7 8 7 8 8 8 9 8 6 6 5 3 9 12 8 7 7 8 7 5 5 4 5 5 4 5 5 6 7 8 9 9 10 11 10 10 8 8 9 8 9 8 8
9 7 3 5 5 11 8 7 6 5 2 3 6 8 13 5 6 6 6 6 7 6 5 5 5 4 5 5 6 7 8 8 9 9 9 9 9 9 8 8 8 6 6 6
7 5 3 3 3 2 7 9 6 6 5 6 6 6 8 6 7 6 7 8 8 6 5 5 4 4 4 4 4 5 7 8 7 8 8 7 8 9 8 7 8 7 7 6
5 5 2 3 8 10 7 6 6 5 5 6 5 9 9 9 7 8 10 9 8 7 6 5 5 4 3 3 4 4 5 6 6 7 7 7 7 7 7 7 7 7 6 6
4 4 4 7 4 6 7 9 9 8 7 6 5 12 6 7 7 7 9 8 6 6 5 5 4 3 3 3 4 4 5 5 6 6 6 6 6 6 6 7 7 6 6 6
6 5 3 1 1 2 4 5 6 4 4 6 7 11 4 3 5 6 8 7 6 5 5 4 4 4 4 4 4 4 4 5 4 5 5 5 5 6 7 7 6 6 6 5
5 5 8 11 7 7 7 7 8 7 6 8 12 12 8 6 6 6 6 7 6 6 6 5 5 5 5 4 4 4 4 4 4 5 5 6 6 6 6 5 5 5 5 5
5 6 6 6 4 5 7 10 12 13 13 12 13 14 15 10 8 7 6 6 6 6 7 7 6 5 5 4 4 4 4 4 4 5 5 6 5 4 4 4 4 4 4 5
4 5 5 6 5 5 8 11 15 16 14 15 13 17 13 8 6 7 8 7 8 9 9 8 7 6 6 6 5 4 4 4 4 5 5 4 4 4 4 4 3 3 3 3
6 5 4 6 3 3 12 14 16 13 13 13 19 21 9 7 10 11 10 9 10 10 9 8 8 8 7 6 6 6 5 4 5 5 4 4 4 4 4 3 3 3 3 3
9 7 4 3 3 12 11 6 11 14 14 15 13 11 10 13 11 9 9 10 11 10 9 8 7 6 5 4 4 4 4 4 5 4 4 4 4 4 3 3 3 3 2 3
9 9 5 4 6 11 10 6 9 11 14 13 17 15 10 5 3 8 9 10 12 10 8 7 6 5 4 5 5 5 4 4 4 4 4 4 5 4 4 3 3 2 2 2
6 7 6 5 6 11 10 5 5 5 11 9 13 15 11 5 5 11 6 8 9 7 5 5 4 4 4 5 6 6 5 5 5 5 4 4 4 4 4 4 3 2 2 2
7 6 9 8 8 12 9 3 7 7 11 5 9 12 9 12 14 7 3 4 5 5 4 4 5 5 5 6 7 6 5 6 5 4 4 4 4 4 3 3 2 2 2 1
11 9 10 8 9 14 6 8 11 10 4 3 4 7 9 12 10 5 4 4 4 4 3 4 5 4 4 6 7 6 6 4 4 4 4 4 3 3 3 3 2 2 2 2
10 11 8 12 13 7 8 10 9 4 5 5 5 5 7 8 8 6 5 5 4 4 4 4 5 4 3 5 6 7 5 5 5 5 4 3 3 2 3 3 3 2 2 1
6 4 5 7 11 9 8 8 7 6 7 6 5 5 5 7 7 6 5 4 4 4 4 4 5 5 4 4 4 5 5 5 6 5 4 3 3 2 2 2 2 2 2 2
8 6 6 10 11 8 9 10 11 9 7 7 6 5 6 7 6 6 6 6 5 4 3 4 5 6 5 4 4 4 5 6 6 5 4 3 3 3 2 1 1 2 2 3
9 10 11 13 9 8 10 10 10 10 10 10 9 7 6 7 8 6 6 5 4 4 4 4 4 5 5 5 5 4 5 6 7 5 4 3 2 2 2 1 1 1 2 3
Wind_Direction
153 151 204 206 197 193 183 205 242 254 264 256 255 267 276 281 264 260 262 258 254 252 251 238 219 204 192 190 191 192 192 188 178 180 184 188 198 198 198 201 199 195 192 188
135 225 220 188 180 187 197 229 256 281 282 254 279 276 272 264 249 244 249 254 255 261 269 249 220 198 195 195 195 194 194 188 186 190 186 184 180 189 197 196 198 197 194 191
196 223 187 170 185 194 212 215 230 256 320 330 320 299 288 279 270 264 249 246 250 247 255 252 225 209 201 200 198 196 195 190 190 181 162 142 135 140 175 196 202 202 198 196
220 227 177 184 200 185 229 217 209 228 281 289 351 296 286 282 296 273 259 256 258 259 253 247 230 218 211 211 199 195 190 189 186 176 177 179 187 197 201 196 197 196 196 198
218 192 187 204 207 183 207 158 172 205 212 277 257 245 279 293 270 262 256 253 256 257 252 251 238 226 218 205 195 192 186 188 184 184 188 191 201 207 192 180 190 197 199 201
230 209 195 202 192 174 142 93 67 51 103 258 230 210 273 243 230 255 259 252 255 260 260 260 251 224 208 189 187 185 186 192 187 189 192 197 202 198 187 192 197 201 200 201
225 231 213 166 136 151 145 129 122 279 244 246 209 214 251 244 231 232 250 257 259 259 255 260 252 225 210 196 192 188 191 197 192 193 199 203 205 200 201 200 201 200 199 204
191 228 205 190 181 174 184 168 181 206 224 265 214 231 252 246 250 247 248 251 256 257 251 252 246 229 221 211 198 193 198 202 195 197 204 205 204 203 208 205 201 203 207 210
186 225 205 195 184 158 165 198 177 148 192 258 258 273 293 267 256 242 239 240 244 247 250 253 252 234 224 217 208 200 201 205 201 201 202 204 204 206 209 206 204 205 208 205
164 203 215 173 121 183 170 152 138 163 189 238 267 258 248 262 243 237 233 234 241 247 254 257 252 238 228 219 213 202 204 208 204 200 201 205 206 208 208 201 204 206 207 201
165 171 191 173 191 180 150 171 167 163 180 186 243 259 226 222 226 229 237 236 235 237 244 249 250 243 230 217 205 201 202 204 203 201 200 202 204 203 202 205 208 207 205 200
167 152 200 229 235 198 176 175 164 177 209 195 209 263 251 224 238 235 242 244 241 240 244 245 246 242 229 222 215 206 202 203 205 198 194 199 200 196 202 210 210 203 203 202
154 153 160 269 267 192 200 189 183 151 148 178 197 256 276 245 249 240 241 248 249 248 251 252 246 236 230 226 221 214 208 206 198 187 187 192 196 198 206 212 208 201 201 202
153 171 197 207 210 184 204 210 190 164 196 215 222 244 266 264 260 260 252 249 249 248 247 243 242 238 231 225 220 216 215 199 187 181 185 196 202 204 208 207 202 200 199 200
153 207 223 242 228 193 210 211 200 208 213 218 233 235 246 241 239 249 251 250 251 254 249 239 235 235 228 224 221 215 208 191 179 179 190 203 202 199 198 198 199 198 198 203
166 203 208 247 236 230 245 228 213 220 226 234 250 256 247 243 232 244 244 236 242 246 245 241 232 227 224 217 212 206 202 188 172 182 197 195 187 187 192 196 192 190 197 199
177 169 183 236 230 279 251 219 210 214 217 213 235 246 250 241 233 233 234 228 231 239 241 234 225 220 219 211 198 197 194 172 170 183 188 182 179 185 190 183 178 190 196 191
177 178 180 191 174 235 246 201 203 217 229 220 236 247 234 234 239 237 225 220 230 235 236 232 222 217 212 190 178 171 164 166 172 179 184 180 175 181 178 173 187 195 188 193
191 175 171 180 220 263 275 229 195 207 243 225 234 246 248 244 285 268 234 220 227 228 224 219 209 199 185 178 169 155 161 165 171 184 189 186 176 175 175 185 195 191 180 195
187 182 176 183 208 238 247 216 176 164 259 236 223 237 237 163 233 258 245 220 226 226 216 204 185 168 173 175 156 155 169 173 189 193 187 177 170 171 180 188 184 172 173 192
172 186 199 201 225 255 249 187 131 183 243 244 212 225 209 198 221 239 229 218 210 207 203 183 169 175 184 164 154 164 173 193 193 166 155 156 162 168 169 161 156 154 154 153
181 185 196 192 218 245 210 152 186 220 243 246 227 221 215 227 239 238 229 218 203 195 187 174 169 179 170 159 159 170 189 186 151 145 146 151 154 151 143 143 144 144 146 150
201 198 191 200 221 239 188 206 224 220 233 239 228 229 222 233 239 230 223 218 208 199 192 178 169 167 166 168 168 176 184 154 144 141 146 147 139 135 144 151 154 145 150 165
240 208 199 235 249 247 242 251 258 242 237 248 247 239 214 226 233 224 220 216 210 202 193 173 160 169 182 177 172 169 156 149 143 145 147 146 141 137 133 143 157 165 181 192
216 189 214 243 255 270 257 239 243 247 253 265 259 242 225 219 229 220 218 216 209 198 185 172 176 181 182 166 159 153 150 144 141 143 146 145 144 148 145 150 188 199 209 211
210 203 211 236 231 221 244 241 237 241 246 246 245 250 238 217 224 219 218 213 196 187 174 171 174 172 167 158 156 154 151 147 144 146 151 153 152 153 153 145 17 322 275 281